K0NV Weather Reports


time (UTC)temp
F
wind
direction
speed
knots
gust
knots
rain 1hr
in
rain 24hr
in
rain mn
in
humidity
%
barometer
mb
20260906181138 98 43 1.7 2.6 0.00 0.00 0.00 43 1016.0
20260906180633 99 115 0.0 0.0 0.00 0.00 0.00 44 1016.1
20260906180132 99 86 0.9 1.7 0.00 0.00 0.00 44 1016.2
20260906175631 98 31 0.0 0.0 0.00 0.00 0.00 43 1016.3
20260906175126 98 119 0.9 1.7 0.00 0.00 0.00 43 1016.5
20260906174624 99 66 0.0 0.0 0.00 0.00 0.00 42 1016.3
20260906174119 97 29 0.0 0.0 0.00 0.00 0.00 45 1016.7
20260906173614 98 359 0.0 0.9 0.00 0.00 0.00 43 1016.9
20260906173110 99 57 0.0 0.0 0.00 0.00 0.00 43 1016.9
20260906172604 96 87 0.0 0.0 0.00 0.00 0.00 45 1016.9
20260906172100 98 65 0.0 0.0 0.00 0.00 0.00 44 1016.7
20260906171559 98 20 0.0 0.0 0.00 0.00 0.00 43 1017.0
20260906171055 98 70 0.0 0.0 0.00 0.00 0.00 44 1017.2
20260906170551 98 353 0.0 0.0 0.00 0.00 0.00 44 1017.2
20260906170049 97 23 0.0 0.0 0.00 0.00 0.00 44 1017.6
20260906165546 98 92 0.9 1.7 0.00 0.00 0.00 44 1017.3
20260906165041 98 80 0.0 0.0 0.00 0.00 0.00 42 1017.3
20260906164541 97 67 0.0 0.0 0.00 0.00 0.00 45 1017.5
20260906164037 97 42 0.0 0.0 0.00 0.00 0.00 46 1017.4
20260906163532 97 184 0.0 0.0 0.00 0.00 0.00 45 1017.5
20260906163028 98 43 0.0 0.0 0.00 0.00 0.00 45 1017.5
20260906162524 98 25 0.0 0.0 0.00 0.00 0.00 46 1017.5
20260906162020 98 19 0.9 1.7 0.00 0.00 0.00 45 1017.5
20260906161515 97 100 0.0 0.0 0.00 0.00 0.00 46 1017.5
20260906161013 97 38 0.0 0.0 0.00 0.00 0.00 45 1017.3
20260906160507 98 25 0.0 0.9 0.00 0.00 0.00 45 1017.5
20260906160006 98 31 0.0 0.0 0.00 0.00 0.00 45 1017.5
20260906155504 96 62 0.0 0.0 0.00 0.00 0.00 46 1017.8
20260906154959 96 31 0.0 0.0 0.00 0.00 0.00 47 1017.9
20260906154454 95 117 0.0 0.0 0.00 0.00 0.00 46 1017.7
20260906153953 96 1 0.0 0.0 0.00 0.00 0.00 46 1017.4
20260906153451 95 110 0.0 0.0 0.00 0.00 0.00 46 1017.7
20260906152942 95 116 0.0 0.0 0.00 0.00 0.00 47 1017.4
20260906152442 95 19 0.0 0.0 0.00 0.00 0.00 48 1017.4
20260906151941 97 46 0.0 0.0 0.00 0.00 0.00 46 1017.4
20260906151437 96 239 0.0 0.0 0.00 0.00 0.00 47 1017.4
20260906150932 97 265 0.0 0.0 0.00 0.00 0.00 49 1017.4
20260906150426 94 77 0.0 0.0 0.00 0.00 0.00 50 1017.4
20260906145921 94 20 0.0 0.0 0.00 0.00 0.00 51 1017.6
20260906145420 95 96 0.0 0.0 0.00 0.00 0.00 50 1017.4
20260906144915 95 144 0.0 0.0 0.00 0.00 0.00 49 1017.4
20260906144409 96 153 0.0 0.0 0.00 0.00 0.00 49 1017.3
20260906143904 94 257 0.0 0.0 0.00 0.00 0.00 50 1017.2
20260906143400 93 239 0.0 0.0 0.00 0.00 0.00 52 1017.2
20260906142855 95 230 0.0 0.0 0.00 0.00 0.00 53 1017.2
20260906142344 93 89 0.0 0.0 0.00 0.00 0.00 54 1017.3
20260906141845 93 110 0.0 0.0 0.00 0.00 0.00 54 1017.4
20260906141339 93 280 0.0 0.0 0.00 0.00 0.00 54 1017.1
20260906140839 92 133 0.0 0.0 0.00 0.00 0.00 55 1017.2
20260906140333 92 270 0.0 0.0 0.00 0.00 0.00 56 1017.5
20260906135831 91 317 0.0 0.0 0.00 0.00 0.00 57 1017.1
20260906135326 90 63 0.0 0.0 0.00 0.00 0.00 56 1017.3
20260906134821 89 77 0.0 0.0 0.00 0.00 0.00 59 1017.1
20260906134316 89 252 0.0 0.0 0.00 0.00 0.00 60 1017.4
20260906133812 88 161 0.0 0.0 0.00 0.00 0.00 61 1017.1
20260906133307 87 155 0.0 0.0 0.00 0.00 0.00 63 1017.1
20260906132802 86 255 0.0 0.0 0.00 0.00 0.00 63 1017.1
20260906132257 85 243 0.0 0.0 0.00 0.00 0.00 65 1017.1
20260906131753 85 239 0.0 0.0 0.00 0.00 0.00 66 1017.0
20260906131247 84 236 0.0 0.0 0.00 0.00 0.00 67 1017.0
20260906130743 83 132 0.0 0.0 0.00 0.00 0.00 67 1016.9
20260906130238 84 107 0.0 0.0 0.00 0.00 0.00 69 1016.9
20260906125737 85 113 0.0 0.0 0.00 0.00 0.00 68 1016.6
20260906125235 84 247 0.0 0.0 0.00 0.00 0.00 66 1016.9
20260906124730 83 241 0.0 0.0 0.00 0.00 0.00 68 1016.6
20260906124226 82 247 0.0 0.0 0.00 0.00 0.00 68 1016.5
20260906123724 81 244 0.0 0.0 0.00 0.00 0.00 69 1016.6
20260906123220 81 239 0.0 0.0 0.00 0.00 0.00 69 1016.5
20260906122719 80 247 0.0 0.0 0.00 0.00 0.00 70 1016.5
20260906122215 79 245 0.0 0.0 0.00 0.00 0.00 72 1016.6
20260906121711 78 246 0.0 0.0 0.00 0.00 0.00 74 1016.3
20260906121207 78 247 0.0 0.0 0.00 0.00 0.00 74 1016.4
20260906120703 78 240 0.0 0.0 0.00 0.00 0.00 74 1016.4
20260906120159 77 230 0.0 0.0 0.00 0.00 0.00 74 1016.3
20260906115654 77 243 0.0 0.0 0.00 0.00 0.00 75 1016.1
20260906115150 75 237 0.0 0.0 0.00 0.00 0.00 77 1016.3
20260906114648 76 141 0.0 0.0 0.00 0.00 0.00 79 1016.3
20260906114144 76 215 0.0 0.0 0.00 0.00 0.00 77 1016.3
20260906113643 77 266 0.0 0.0 0.00 0.00 0.00 75 1016.0
20260906113138 77 260 0.0 0.0 0.00 0.00 0.00 74 1016.1
20260906112637 77 294 0.0 0.0 0.00 0.00 0.00 74 1016.0
20260906112135 76 245 0.0 0.0 0.00 0.00 0.00 76 1016.1
20260906111634 76 132 0.0 0.0 0.00 0.00 0.00 76 1015.8
20260906111129 76 232 0.0 0.0 0.00 0.00 0.00 76 1015.9
20260906110623 76 182 0.0 0.0 0.00 0.00 0.00 77 1016.0
20260906110118 76 146 0.0 0.0 0.00 0.00 0.00 77 1016.0
20260906105607 76 110 0.0 0.0 0.00 0.00 0.00 77 1016.1
20260906105103 77 112 0.0 0.0 0.00 0.00 0.00 76 1015.9
20260906104602 77 199 0.0 0.0 0.00 0.00 0.00 75 1016.1
20260906104056 77 197 0.0 0.0 0.00 0.00 0.00 75 1015.9
20260906103554 77 138 0.0 0.0 0.00 0.00 0.00 76 1015.8
20260906103049 77 135 0.0 0.0 0.00 0.00 0.00 75 1015.9
20260906102549 77 136 0.0 0.0 0.00 0.00 0.00 76 1015.8
20260906102044 77 93 0.0 0.0 0.00 0.00 0.00 75 1015.7
20260906101539 78 106 0.0 0.0 0.00 0.00 0.00 74 1015.6
20260906101034 77 143 0.0 0.0 0.00 0.00 0.00 75 1015.8
20260906100530 77 152 0.0 0.0 0.00 0.00 0.00 75 1015.6
20260906100030 77 144 0.0 0.0 0.00 0.00 0.00 74 1015.6
20260906095524 77 143 0.0 0.0 0.00 0.00 0.00 75 1015.6
20260906095020 77 151 0.0 0.0 0.00 0.00 0.00 75 1015.8
20260906094519 78 116 0.9 0.9 0.00 0.00 0.00 74 1015.6
20260906094015 78 356 0.0 0.0 0.00 0.00 0.00 73 1015.7
20260906093511 79 323 0.0 0.0 0.00 0.00 0.00 72 1015.7
20260906093011 78 333 0.0 0.0 0.00 0.00 0.00 71 1015.7
20260906092505 78 274 0.0 0.0 0.00 0.00 0.00 72 1015.7
20260906092001 78 275 0.0 0.0 0.00 0.00 0.00 72 1015.6
20260906091456 78 272 0.0 0.0 0.00 0.00 0.00 72 1015.8
20260906090953 79 267 0.0 0.0 0.00 0.00 0.00 71 1015.6
20260906090447 79 273 0.0 0.0 0.00 0.00 0.00 71 1015.8
20260906085942 79 262 0.0 0.0 0.00 0.00 0.00 71 1015.5
20260906085441 79 262 0.0 0.0 0.00 0.00 0.00 71 1015.7
20260906084940 79 257 0.0 0.0 0.00 0.00 0.00 71 1015.4
20260906084435 79 260 0.0 0.0 0.00 0.00 0.00 71 1015.7
20260906083934 79 217 0.0 0.0 0.00 0.00 0.00 72 1015.7
20260906083430 79 244 0.0 0.0 0.00 0.00 0.00 72 1015.4
20260906082929 79 234 0.0 0.0 0.00 0.00 0.00 71 1015.3
20260906082425 79 251 0.0 0.0 0.00 0.00 0.00 70 1015.4
20260906081920 80 256 0.0 0.0 0.00 0.00 0.00 70 1015.5
20260906081416 80 266 0.0 0.0 0.00 0.00 0.00 69 1015.7
20260906080912 80 177 0.0 0.0 0.00 0.00 0.00 69 1015.6
20260906080408 80 265 0.0 0.0 0.00 0.00 0.00 69 1016.0
20260906075907 80 256 0.0 0.0 0.00 0.00 0.00 69 1015.8
20260906075403 81 134 0.0 0.0 0.00 0.00 0.00 68 1015.6
20260906074858 81 131 0.0 0.0 0.00 0.00 0.00 67 1015.5
20260906074357 82 94 0.0 0.0 0.00 0.00 0.00 67 1015.7
20260906073856 82 143 0.9 1.7 0.00 0.00 0.00 66 1015.7
20260906073351 82 118 0.0 0.0 0.00 0.00 0.00 66 1015.8
20260906072848 82 108 0.0 0.0 0.00 0.00 0.00 66 1015.5
20260906072343 82 104 0.0 0.0 0.00 0.00 0.00 66 1015.7
20260906071839 82 117 0.0 0.0 0.00 0.00 0.00 66 1015.8
20260906071333 82 130 0.0 0.9 0.00 0.00 0.00 66 1015.6
20260906070829 82 132 0.0 0.0 0.00 0.00 0.00 65 1015.8
20260906070325 82 128 0.0 0.0 0.00 0.00 0.00 65 1015.8
20260906065820 82 127 0.0 0.0 0.00 0.00 0.00 65 1015.7
20260906065315 82 89 0.0 0.0 0.00 0.00 0.00 65 1015.7
20260906064811 82 98 0.0 0.0 0.00 0.00 0.00 65 1015.7
20260906064307 83 69 0.0 0.0 0.00 0.00 0.00 64 1015.8
20260906063801 83 118 0.0 0.0 0.00 0.00 0.00 64 1016.0
20260906063256 83 102 0.0 0.0 0.00 0.00 0.00 64 1015.8
20260906062751 83 122 0.0 0.0 0.00 0.00 0.00 64 1015.7
20260906062250 83 117 0.0 0.0 0.00 0.00 0.00 64 1015.6
20260906061747 83 100 0.0 0.0 0.00 0.00 0.00 65 1015.9
20260906061243 83 78 0.0 0.0 0.00 0.00 0.00 64 1015.8
20260906060743 83 107 0.0 0.0 0.00 0.00 0.00 64 1016.1
20260906060241 83 125 0.0 0.0 0.00 0.00 0.00 64 1015.9
20260906055736 83 107 0.0 0.0 0.00 0.00 0.00 65 1016.0
20260906055231 83 122 0.0 0.0 0.00 0.00 0.00 65 1016.0
20260906054726 83 137 0.0 0.0 0.00 0.00 0.00 65 1016.0
20260906054222 82 261 0.0 0.0 0.00 0.00 0.00 68 1015.9
20260906053718 82 18 0.0 0.0 0.00 0.00 0.00 68 1015.8
20260906053213 82 51 0.0 0.9 0.00 0.00 0.00 68 1015.8
20260906052708 82 58 0.0 0.0 0.00 0.00 0.00 68 1015.7
20260906052205 82 299 0.0 0.0 0.00 0.00 0.00 68 1015.6
20260906051701 82 264 0.0 0.0 0.00 0.00 0.00 68 1015.6
20260906051200 82 264 0.0 0.0 0.00 0.00 0.00 67 1015.7
20260906050656 82 264 0.0 0.0 0.00 0.00 0.00 67 1015.8
20260906050151 82 257 0.0 0.0 0.00 0.00 0.00 68 1015.9
20260906045649 82 256 0.0 0.0 0.00 0.00 0.00 67 1015.5
20260906045145 82 256 0.0 0.0 0.00 0.00 0.00 67 1015.8
20260906044641 83 242 0.0 0.0 0.00 0.00 0.00 67 1015.7
20260906044136 83 260 0.0 0.0 0.00 0.00 0.00 66 1015.8
20260906043632 83 258 0.0 0.0 0.00 0.00 0.00 66 1015.8
20260906043127 84 255 0.0 0.0 0.00 0.00 0.00 66 1015.9
20260906042627 84 186 0.0 0.0 0.00 0.00 0.00 63 1015.8
20260906042121 84 110 0.0 0.0 0.00 0.00 0.00 64 1015.9
20260906041617 84 96 0.0 0.0 0.00 0.00 0.00 63 1015.9
20260906041112 84 127 0.0 0.0 0.00 0.00 0.00 64 1015.6
20260906040608 84 179 0.0 0.0 0.00 0.00 0.00 64 1015.5
20260906040103 84 115 0.0 0.0 0.00 0.00 0.00 64 1015.5
20260906035559 84 103 0.0 0.0 0.00 0.00 0.00 63 1015.6
20260906035054 84 113 0.0 0.0 0.00 0.00 0.00 64 1015.3
20260906034553 84 87 0.0 0.0 0.00 0.00 0.00 63 1015.5
20260906034048 84 66 0.0 0.0 0.00 0.00 0.00 63 1015.7
20260906033543 84 110 0.0 0.0 0.00 0.00 0.00 63 1015.4
20260906033039 85 73 0.0 0.0 0.00 0.00 0.00 62 1015.5
20260906032536 85 50 0.0 0.0 0.00 0.00 0.00 62 1015.5
20260906032030 85 84 0.0 0.0 0.00 0.00 0.00 62 1015.6
20260906031526 85 75 0.0 0.0 0.00 0.00 0.00 61 1015.4
20260906031022 85 137 0.9 1.7 0.00 0.00 0.00 61 1015.5
20260906030521 85 100 0.0 0.0 0.00 0.00 0.00 60 1015.1
20260906030021 86 86 0.0 0.0 0.00 0.00 0.00 59 1015.3
20260906025520 86 109 0.0 0.0 0.00 0.00 0.00 59 1015.6
20260906025019 86 105 0.0 0.0 0.00 0.00 0.00 58 1015.3
20260906024514 86 143 0.0 0.0 0.00 0.00 0.00 57 1015.2
20260906024013 87 125 0.0 0.0 0.00 0.00 0.00 57 1015.0
20260906023510 87 124 0.0 0.0 0.00 0.00 0.00 56 1015.1
20260906023004 87 127 0.0 0.0 0.00 0.00 0.00 56 1015.3
20260906022459 87 85 0.0 0.0 0.00 0.00 0.00 56 1015.2
20260906021955 87 118 0.0 0.0 0.00 0.00 0.00 55 1014.9
20260906021449 88 69 0.0 0.0 0.00 0.00 0.00 54 1014.9
20260906020944 88 125 0.0 0.0 0.00 0.00 0.00 53 1014.7
20260906020438 89 69 0.0 0.0 0.00 0.00 0.00 52 1014.7
20260906015932 89 36 0.0 0.0 0.00 0.00 0.00 52 1014.6
20260906015427 89 87 0.0 0.0 0.00 0.00 0.00 51 1014.5
20260906014927 89 102 0.0 0.0 0.00 0.00 0.00 51 1014.6
20260906014427 90 76 0.0 0.0 0.00 0.00 0.00 50 1014.5
20260906013923 90 164 0.0 0.0 0.00 0.00 0.00 49 1014.4
20260906013418 91 102 0.0 0.0 0.00 0.00 0.00 48 1014.4
20260906012913 90 120 0.0 0.0 0.00 0.00 0.00 49 1014.5
20260906012408 89 79 0.0 0.0 0.00 0.00 0.00 51 1014.1
20260906011908 89 108 0.0 0.0 0.00 0.00 0.00 53 1014.2
20260906011403 90 120 0.0 0.0 0.00 0.00 0.00 52 1014.2
20260906010858 90 117 0.0 0.0 0.00 0.00 0.00 51 1014.2
20260906010354 90 91 0.0 0.0 0.00 0.00 0.00 51 1014.1
20260906005849 91 91 0.0 0.0 0.00 0.00 0.00 49 1014.2
20260906005348 91 90 0.0 0.0 0.00 0.00 0.00 49 1014.0
20260906004847 92 90 0.0 0.0 0.00 0.00 0.00 48 1014.1
20260906004342 92 132 0.0 0.0 0.00 0.00 0.00 49 1014.0
20260906003837 92 97 0.0 0.0 0.00 0.00 0.00 48 1014.0
20260906003332 93 93 0.0 0.0 0.00 0.00 0.00 48 1014.0
20260906002833 94 144 0.0 0.0 0.00 0.00 0.00 46 1014.1
20260906002332 94 121 0.0 0.0 0.00 0.00 0.00 45 1014.1
20260906001828 95 124 0.0 0.0 0.00 0.00 0.00 45 1014.1
20260906001323 95 108 0.0 0.0 0.00 0.00 0.00 44 1014.0
20260906000818 95 119 0.0 0.0 0.00 0.00 0.00 44 1014.2
20260906000313 95 135 0.0 0.0 0.00 0.00 0.00 43 1014.2
20260905235809 96 130 0.0 0.0 0.00 0.00 0.00 43 1014.2
20260905235308 96 105 0.0 0.0 0.00 0.00 0.00 43 1014.4
20260905234804 96 96 0.0 0.0 0.00 0.00 0.00 42 1014.2
20260905234259 96 121 0.0 0.0 0.00 0.00 0.00 42 1014.2
20260905233754 96 84 0.0 0.0 0.00 0.00 0.00 42 1014.0
20260905233254 96 93 0.0 0.0 0.00 0.00 0.00 42 1013.8
20260905232753 97 145 0.0 0.0 0.00 0.00 0.00 42 1014.0
20260905232249 97 140 0.0 0.0 0.00 0.00 0.00 42 1014.1
20260905231744 97 95 0.0 0.0 0.00 0.00 0.00 41 1014.0
20260905231240 97 67 0.0 0.0 0.00 0.00 0.00 41 1014.1
20260905230736 97 29 0.0 0.0 0.00 0.00 0.00 42 1014.1
20260905230234 97 81 0.0 0.0 0.00 0.00 0.00 42 1014.0
20260905225733 97 255 0.0 0.0 0.00 0.00 0.00 42 1013.9
20260905225229 98 73 0.0 0.0 0.00 0.00 0.00 42 1013.9
20260905224728 98 44 0.0 0.0 0.00 0.00 0.00 42 1013.9
20260905224223 98 130 0.0 0.0 0.00 0.00 0.00 42 1013.6
20260905223719 98 268 0.0 0.0 0.00 0.00 0.00 40 1013.7
20260905223216 98 330 0.0 0.0 0.00 0.00 0.00 40 1013.8
20260905222712 99 86 0.0 0.0 0.00 0.00 0.00 40 1013.9
20260905222211 100 255 0.0 0.0 0.00 0.00 0.00 38 1013.9
20260905221707 99 278 0.0 0.0 0.00 0.00 0.00 38 1013.8
20260905221203 99 260 0.0 0.0 0.00 0.00 0.00 39 1013.8
20260905220658 98 113 0.0 0.0 0.00 0.00 0.00 40 1014.0
20260905220155 100 348 0.0 0.0 0.00 0.00 0.00 39 1014.2
20260905215649 100 260 0.0 0.0 0.00 0.00 0.00 39 1014.2
20260905215145 99 261 0.0 0.0 0.00 0.00 0.00 40 1014.2
20260905214640 99 60 0.0 0.0 0.00 0.00 0.00 41 1014.0
20260905214135 98 70 0.0 0.0 0.00 0.00 0.00 41 1014.1
20260905213631 98 44 0.0 0.0 0.00 0.00 0.00 41 1014.5
20260905213126 98 253 0.0 0.0 0.00 0.00 0.00 41 1014.7
20260905212621 98 39 0.0 0.0 0.00 0.00 0.00 42 1014.5
20260905212120 98 121 0.0 0.9 0.00 0.00 0.00 42 1014.6
20260905211615 97 93 0.0 0.0 0.00 0.00 0.00 43 1014.5
20260905211110 99 49 0.0 0.0 0.00 0.00 0.00 41 1014.4
20260905210607 100 35 0.0 0.0 0.00 0.00 0.00 40 1014.6
20260905205600 99 223 0.0 0.0 0.00 0.00 0.00 39 1014.9
20260905205054 99 57 0.0 0.0 0.00 0.00 0.00 38 1015.0
20260905204550 98 250 0.0 0.0 0.00 0.00 0.00 40 1015.0
20260905204045 99 303 0.0 0.0 0.00 0.00 0.00 40 1015.2
20260905203544 99 122 0.0 0.0 0.00 0.00 0.00 39 1014.9
20260905203040 99 339 0.0 0.0 0.00 0.00 0.00 40 1015.3
20260905202535 97 36 0.0 0.9 0.00 0.00 0.00 43 1015.3
20260905202030 97 32 0.0 0.0 0.00 0.00 0.00 43 1015.2
20260905201526 97 30 0.0 0.0 0.00 0.00 0.00 43 1015.5
20260905201025 97 52 0.0 0.9 0.00 0.00 0.00 44 1015.4
20260905200520 99 55 0.9 1.7 0.00 0.00 0.00 43 1015.6
20260905200015 98 247 0.0 0.0 0.00 0.00 0.00 42 1015.7
20260905195509 99 30 0.0 0.0 0.00 0.00 0.00 43 1015.6
20260905195004 97 287 0.0 0.0 0.00 0.00 0.00 44 1015.8
20260905194503 98 93 0.0 0.0 0.00 0.00 0.00 42 1015.7
20260905193958 99 152 0.0 0.0 0.00 0.00 0.00 41 1015.9
20260905193453 99 257 0.0 0.0 0.00 0.00 0.00 41 1015.8
20260905192948 98 8 0.0 0.0 0.00 0.00 0.00 41 1015.8
20260905192443 97 98 0.0 0.0 0.00 0.00 0.00 44 1016.0
20260905191938 96 256 0.0 0.0 0.00 0.00 0.00 46 1015.9
20260905191438 95 103 0.0 0.0 0.00 0.00 0.00 45 1015.9
20260905190937 96 321 0.0 0.0 0.00 0.00 0.00 45 1016.3
20260905190435 96 41 0.0 0.9 0.00 0.00 0.00 45 1016.3
20260905185934 98 0 0.0 0.0 0.00 0.00 0.00 44 1016.4
20260905185429 100 147 0.0 0.0 0.00 0.00 0.00 42 1016.5
20260905184927 99 94 0.0 0.0 0.00 0.00 0.00 43 1016.6
20260905184423 100 1 0.9 1.7 0.00 0.00 0.00 42 1016.6
20260905183922 100 251 0.0 0.0 0.00 0.00 0.00 42 1016.5
20260905183416 99 351 0.0 0.0 0.00 0.00 0.00 43 1016.7
20260905182911 97 259 0.0 0.0 0.00 0.00 0.00 45 1016.9
20260905182410 96 106 0.0 0.0 0.00 0.00 0.00 46 1017.1
20260905181906 99 53 0.0 0.0 0.00 0.00 0.00 43 1016.9